{"data":{"norad_id":57077,"intl_designator":"2023-088AF","name":"STARLINK-6194","alt_names":[],"object_type":"PAYLOAD","status":"ACTIVE","operator":null,"country":"US","launch_date":"2023-06-22","launch_site_code":"AFWTR","launch_vehicle":null,"mission":null,"orbit_class":"UNKNOWN","rcs_meters":null,"size_class":null,"mass_kg":null,"dimensions":null,"purposes":["comms"],"wikipedia_slug":null,"has_3d_model":false,"image_url":null,"decayed_at":null,"tle_current":{"epoch":"2026-09-20T04:45:04.213152Z","epoch_age_seconds":147069,"freshness":"FRESH","line1":"1 57077U 23088AF  26263.19796543 -.00000313  00000+0 -18496-5 0  9991","line2":"2 57077  43.0036  78.0100 0001158 265.2159  94.8561 15.27575648180401","mean_motion":15.27575648,"eccentricity":0.0001158,"inclination_deg":43.0036,"raan_deg":78.01,"arg_perigee_deg":265.2159,"mean_anomaly_deg":94.8561,"bstar":-1.8496e-6,"rev_number":18040,"period_min":94.26701727573,"perigee_km":482.26760066525,"apogee_km":483.85665438318,"semimajor_km":6861.1991275242,"source":"CELESTRAK","updated_at":"2026-09-21T09:00:33.554022Z"}}}